Regional Weather Roundup
Issued by NWS

Home | Current Version | Previous Version | Text Only | Print | Product List | Glossary Off
Versions: 1 2 3 4 5 6 7 8 9 10 11 12 13 14 15 16 17 18 19 20 21 22 23 24 25 26 27 28 29 30 31 32 33 34 35 36 37 38 39 40 41 42 43 44 45 46 47 48 49 50

000
ASUS43 KLOT 210008
RWRIL

ILLINOIS REGIONAL WEATHER ROUNDUP
NATIONAL WEATHER SERVICE CHICAGO/ROMEOVILLE IL
600 PM CST FRI JAN 20 2017

NOTE: "FAIR" INDICATES FEW OR NO CLOUDS BELOW 12,000 FEET WITH NO
SIGNIFICANT WEATHER AND/OR OBSTRUCTIONS TO VISIBILITY.

* THESE STATIONS ARE NOT UNDER NWS QUALITY CONTROL. THEY ALSO MAY NOT
  REPORT WEATHER SUCH AS PRECIPITATION OR FOG.

ILZ001-002-007-009-015-016-024-210100-
NORTHWEST ILLINOIS

CITY           SKY/WX    TMP DP  RH WIND       PRES   REMARKS
MOLINE         CLOUDY    44  41  89 E6        29.59R FOG
6HR MIN TEMP:  42; 6HR MAX TEMP:  46;

STERLING*      FOG       39  39 100 E7        29.62R VSB 1/4 WCI  34
SAVANNA*       FOG       39  39  99 E6        29.61R VSB 3/4 WCI  35
$$

ILZ003-004-008-010-011-017-018-210100-
NORTH CENTRAL ILLINOIS

CITY           SKY/WX    TMP DP  RH WIND       PRES   REMARKS
ROCKFORD       FOG       40  39  97 E5        29.64R VSB 1/4
6HR MIN TEMP:  40; 6HR MAX TEMP:  41; 6HR PCP: TRACE;

FREEPORT*      FOG       37  37  99 E6        29.62F VSB 1/4 WCI  32
ROCHELLE*      FOG       38  38 100 SE7       29.63R VSB 1/4 WCI  33
DE KALB*       FOG       39  39  99 E7        29.64R VSB 1/4 WCI  34
$$

ILZ005-006-012>014-019>023-210100-
NORTHEAST ILLINOIS

CITY           SKY/WX    TMP DP  RH WIND       PRES   REMARKS
CHICAGO-OHARE  CLOUDY    41  40  96 E7        29.65S FOG
6HR MIN TEMP:  40; 6HR MAX TEMP:  42; 6HR PCP: TRACE;

CHICAGO-MIDWAY CLOUDY    41  39  93 E5        29.66S FOG
6HR MIN TEMP:  39; 6HR MAX TEMP:  42;

AURORA         CLOUDY    42  40  92 E6        29.64S FOG
6HR MIN TEMP:  41; 6HR MAX TEMP:  44;

LANSING*       CLOUDY    43  43 100 SE6       29.67R
JOLIET*        FOG       45  45  99 SE5       29.65S VSB 3/4
WAUKEGAN       FOG       37  37 100 E6        29.66R VSB 1/16WCI  32
6HR MIN TEMP:  37; 6HR MAX TEMP:  38;

DUPAGE AIRPORT FOG       41  39  93 E7        29.63F VSB 1/4
6HR MIN TEMP:  40; 6HR MAX TEMP:  42;

KANKAKEE*      CLOUDY    48  47  97 CALM      29.66S FOG
WHEELING       FOG       39  38  96 E5        29.66F VSB 1
6HR MIN TEMP:  39; 6HR MAX TEMP:  40;

MORRIS*        CLOUDY    42  41  97 E6        29.63S FOG
ROMEOVILLE*    CLOUDY    42  42 100 SE6       29.65S FOG
NORTHERLY ISL    N/A     36  35  96 E1          N/A
$$

LMZ740>746-210100-
SOUTHERN LAKE MICHIGAN

STATION/POSITION SKY/WX   TEMP    WIND        PRES    VSBY  WAVE
                          AIR SEA DIR/SP/G                  HT/PER
                          (F)     (DEG/KT/KT) (MB)    (MI)  (FT/S)
HARRISON CRIB              37     120/  2/  2   N/A
BURNHAM HARBOR             36      CALM  /  1   N/A
CALUMET HARBOR             36      50/  3/  4 1004.2
BURNS HARBOR               45     170/  5/  8 1005.8R
MICHIGAN CITY              41      70/  4/  5   N/A
$$

ILZ025>027-034>036-040-047-049-050-058-095>099-210100-
WEST-CENTRAL ILLINOIS

CITY           SKY/WX    TMP DP  RH WIND       PRES   REMARKS
QUINCY         CLOUDY    48  47  96 E8        29.55R FOG
GALESBURG*     CLOUDY    44  44 100 E3        29.59R FOG
MACOMB*        LGT RAIN  46  46 100 E6        29.60R
JACKSONVILLE*  CLOUDY    48  47  97 SE5       29.59R
PITTSFIELD*    CLOUDY    48  48  99 E5        29.58R FOG
$$

ILZ028>032-037-038-041>044-048-051>054-059>061-210100-
CENTRAL ILLINOIS

CITY           SKY/WX    TMP DP  RH WIND       PRES   REMARKS
PONTIAC        CLOUDY    46  46 100 E7        29.63S FOG
BLOOMINGTON    CLOUDY    47  47 100 SE8       29.62R FOG
DECATUR        CLOUDY    50  49  96 SE8       29.62R
PEORIA         LGT RAIN  47  47 100 SE5       29.61R FOG
6HR MIN TEMP:  45; 6HR MAX TEMP:  48; 6HR PCP:  0.01;

LACON*         CLOUDY    45  45 100 SE3       29.60R FOG
LINCOLN*       CLOUDY    49  49  99 CALM      29.61R
SPRINGFIELD    CLOUDY    50  48  93 SE6       29.60S FOG
6HR MIN TEMP:  48; 6HR MAX TEMP:  53; 6HR PCP: TRACE;

TAYLORVILLE    CLOUDY    50  49  94 SE5       29.60S
6HR MIN TEMP:  49; 6HR MAX TEMP:  52;

$$

ILZ033-039-045-046-055>057-062-063-210100-
EAST-CENTRAL ILLINOIS

CITY           SKY/WX    TMP DP  RH WIND       PRES   REMARKS
CHAMPAIGN      CLOUDY    49  47  93 E8        29.63S
RANTOUL*       CLOUDY    50  49  97 SE7       29.64R
MATTOON        CLOUDY    52  50  93 SE8       29.62S
PARIS*         CLOUDY    51  49  93 SE6       29.66S
$$

ILZ079-100>102-210100-
SOUTHWEST ILLINOIS

CITY           SKY/WX    TMP DP  RH WIND       PRES   REMARKS
ALTON          CLOUDY    50  48  93 SE5       29.59R
BELLEVILLE     CLOUDY    55  55  99 E3        29.58R
CAHOKIA*       PTCLDY    54  49  83 SE5       29.58R
SPARTA*        MOCLDY    57  52  82 S13       29.60R
$$

ILZ064>066-069>071-074>076-080>082-084>086-088>090-092>094-210100-
SOUTH-CENTRAL ILLINOIS

CITY           SKY/WX    TMP DP  RH WIND       PRES   REMARKS
CARBONDALE     MOCLDY    57  52  83 S10       29.62R
6HR MIN TEMP:  56; 6HR MAX TEMP:  59;

CAIRO*         CLEAR     56  52  86 SE7       29.65R
EFFINGHAM*     CLOUDY    54  54 100 SE7       29.65R
MARION         PTCLDY    57  55  94 S12       29.64S
MT. VERNON     PTCLDY    56  52  86 S8        29.62S
CENTRALIA*     CLEAR     56  53  88 S10       29.61R
SALEM*         CLOUDY    57  52  84 SE3       29.60S
METROPOLIS*    PTCLDY    57  52  84 CALM      29.67S
$$

ILZ067-068-072-073-078-083-087-091-210100-
SOUTHEAST ILLINOIS

CITY           SKY/WX    TMP DP  RH WIND       PRES   REMARKS
LAWRENCEVILLE  MOCLDY    53  51  93 SE9       29.67R
FLORA*         CLOUDY    56  54  92 SE9       29.63F
FAIRFIELD*     MOCLDY    56  53  88 SE6       29.63S
HARRISBURG*    MOCLDY    58  52  82 S10       29.66S
ROBINSON*      CLOUDY    54  51  92 SE5       29.68R
CARMI*         MOCLDY    56  53  89 S9        29.67R
$$

ABBREVIATIONS USED IN REMARKS
   TC - TEMPERATURE IN CELSIUS
  WCI - WIND CHILL INDEX
   HX - HEAT INDEX
  VSB - VISIBILITY
$$





USA.gov is the U.S. government's official web portal to all federal, state and local government web resources and services.